Quantico, VA

11:10 PM EDT on July 24, 2017 (GMT -0400)
Quantico Marine Corps Air Facility

Weather History for KNYG - December, 2012

Change the Weather History Date:

Saturday, December 29, 2012

  Actual Average Record
Temperature  
Mean Temperature 38 °F -  
Max Temperature 42 °F 42 °F 68 °F (1996)
Min Temperature 33 °F 27 °F 18 °F (2000)
Degree Days  
Heating Degree Days 28    
Moisture  
Dew Point 32 °F    
Average Humidity 80    
Maximum Humidity 93    
Minimum Humidity 55    
Precipitation  
Precipitation 0.16 in - - ()
Sea Level Pressure  
Sea Level Pressure 29.76 in    
Wind  
Wind Speed 4 mph (NW)    
Max Wind Speed 18 mph    
Max Gust Speed 33 mph    
Visibility 8 miles    
Events Rain , Snow    
Averages and records for this station are not official NWS values.
T = Trace of Precipitation, MM = Missing Value Source: NWS Daily Summary

Daily Weather History Graph

Daily Weather History Graph

Search for Another Location

Airport or City:

Trip Planner

Search our weather history database for the weather conditions in past years. The results will help you decide how hot, cold, wet, or windy it might be!

Date:

Astronomy

Dec. 29, 2012 Rise Set
Actual Time 7:26 AM EST 4:57 PM EST
Civil Twilight 6:56 AM EST 5:26 PM EST
Nautical Twilight 6:23 AM EST 5:59 PM EST
Astronomical Twilight 5:51 AM EST 6:32 PM EST
Moon 6:26 PM EST (12/29) 7:59 AM EST (12/29)
Length of Visible Light 10h 30m
Length of Day
9h 30m
Full, 98% of the Moon is Illuminated
Dec 29
Full
Jan 4
Last Quarter
Jan 11
New
Jan 18
First Quarter
Jan 26
Full

Hourly Weather History & Observations

Time (EST) Temp. Windchill Dew Point Humidity Pressure Visibility Wind Dir Wind Speed Gust Speed Precip Events Conditions
12:56 AM 37.9 °F 34.4 °F 28.9 °F 70% 30.04 in 10.0 mi SSE 4.6 mph - N/A   Clear
1:56 AM 37.9 °F 35.5 °F 28.9 °F 70% 30.02 in 10.0 mi SE 3.5 mph - N/A   Overcast
2:56 AM 36.0 °F - 30.0 °F 79% 30.01 in 10.0 mi Calm Calm - N/A   Overcast
3:56 AM 37.9 °F 32.7 °F 30.0 °F 73% 29.95 in 10.0 mi SE 6.9 mph - N/A   Overcast
4:56 AM 37.9 °F 31.5 °F 30.9 °F 76% 29.93 in 10.0 mi SSE 9.2 mph - N/A   Overcast
5:56 AM 39.0 °F 32.8 °F 30.9 °F 73% 29.88 in 10.0 mi South 9.2 mph - N/A   Overcast
6:56 AM 37.9 °F 33.5 °F 30.0 °F 73% 29.83 in 10.0 mi SE 5.8 mph - N/A   Overcast
7:56 AM 37.9 °F 33.5 °F 30.9 °F 76% 29.79 in 10.0 mi SSE 5.8 mph - N/A   Mostly Cloudy
8:18 AM 37.4 °F - 30.2 °F 75% 29.80 in 10.0 mi Calm Calm - N/A   Overcast
8:56 AM 37.9 °F 33.5 °F 32.0 °F 79% 29.81 in 6.0 mi WNW 5.8 mph - 0.01 in Rain Rain
9:44 AM 33.8 °F 27.7 °F 30.2 °F 87% 29.81 in 2.0 mi NW 6.9 mph - 0.06 in Snow Light Snow
9:56 AM 34.0 °F 28.8 °F 30.9 °F 89% 29.81 in 3.0 mi NW 5.8 mph - 0.07 in Rain Light Rain
10:19 AM 33.8 °F - 30.2 °F 87% 29.79 in 2.5 mi Calm Calm - 0.01 in Rain Light Rain
10:41 AM 35.6 °F - 32.0 °F 87% 29.77 in 2.5 mi Calm Calm - 0.03 in Rain Light Rain
10:45 AM 35.6 °F - 32.0 °F 87% 29.77 in 3.0 mi Calm Calm - 0.04 in Rain Light Rain
10:54 AM 35.6 °F - 32.0 °F 87% 29.76 in 3.0 mi Calm Calm - 0.04 in Snow Light Snow
10:56 AM 35.1 °F - 32.0 °F 89% 29.76 in 3.0 mi Calm Calm - 0.05 in Rain Light Rain
11:15 AM 35.6 °F - 32.0 °F 87% 29.74 in 4.0 mi Calm Calm - 0.01 in Rain Light Rain
11:48 AM 35.6 °F - 33.8 °F 93% 29.71 in 7.0 mi Calm Calm - 0.03 in Rain Light Rain
11:56 AM 36.0 °F - 33.1 °F 89% 29.70 in 9.0 mi Calm Calm - 0.03 in   Overcast
12:12 PM 35.6 °F 32.8 °F 33.8 °F 93% 29.69 in 9.0 mi NW 3.5 mph - N/A   Overcast
12:20 PM 35.6 °F 31.7 °F 33.8 °F 93% 29.69 in 9.0 mi NW 4.6 mph - N/A   Overcast
12:47 PM 37.4 °F 34.9 °F 33.8 °F 87% 29.65 in 8.0 mi NW 3.5 mph - N/A   Overcast
12:56 PM 37.0 °F 34.5 °F 34.0 °F 89% 29.65 in 8.0 mi WNW 3.5 mph - N/A   Overcast
1:07 PM 37.4 °F - 33.8 °F 87% 29.64 in 8.0 mi Calm Calm - N/A   Overcast
1:52 PM 37.4 °F - 35.6 °F 93% 29.61 in 9.0 mi Calm Calm - N/A   Overcast
1:56 PM 39.0 °F - 35.1 °F 86% 29.61 in 9.0 mi Calm Calm - N/A   Overcast
2:18 PM 37.4 °F - 35.6 °F 93% 29.60 in 9.0 mi Calm Calm - N/A   Overcast
2:56 PM 39.0 °F 36.8 °F 35.1 °F 86% 29.61 in 10.0 mi Variable 3.5 mph - N/A   Overcast
3:38 PM 42.8 °F 39.3 °F 35.6 °F 76% 29.61 in 10.0 mi NW 5.8 mph - N/A   Partly Cloudy
3:56 PM 42.1 °F 37.7 °F 35.1 °F 76% 29.61 in 10.0 mi NW 6.9 mph - N/A   Scattered Clouds
4:56 PM 39.9 °F 37.8 °F 35.1 °F 83% 29.63 in 10.0 mi WNW 3.5 mph - N/A   Clear
5:56 PM 39.0 °F - 34.0 °F 82% 29.66 in 10.0 mi Calm Calm - N/A   Partly Cloudy
6:56 PM 39.9 °F 36.7 °F 33.1 °F 77% 29.69 in 10.0 mi NW 4.6 mph - N/A   Mostly Cloudy
7:56 PM 42.1 °F 33.6 °F 28.0 °F 58% 29.73 in 10.0 mi NNW 18.4 mph 33.4 mph N/A   Overcast
8:56 PM 41.0 °F 33.1 °F 27.0 °F 57% 29.77 in 10.0 mi NNW 15.0 mph 21.9 mph N/A   Mostly Cloudy
9:56 PM 39.9 °F 31.1 °F 26.1 °F 58% 29.80 in 10.0 mi NNW 17.3 mph 29.9 mph N/A   Partly Cloudy
10:56 PM 39.9 °F 31.1 °F 26.1 °F 58% 29.82 in 10.0 mi NNW 17.3 mph 26.5 mph N/A   Overcast
11:56 PM 39.9 °F 31.4 °F 25.0 °F 55% 29.84 in 10.0 mi NNW 16.1 mph 29.9 mph N/A   Scattered Clouds